Regional Weather Roundup
Issued by NWS Newport/Morehead, NC

Current Version | Previous Version | Text Only | Print | Product List | Glossary On
Versions: 1 2 3 4 5 6 7 8 9 10 11 12 13 14 15 16 17 18 19 20 21 22 23 24 25 26 27 28 29 30 31 32 33 34 35 36 37 38 39 40 41 42 43 44 45 46 47 48 49 50
000
ASUS42 KMHX 152125
RWRMHX
WEATHER ROUNDUP FOR EASTERN NORTH CAROLINA
NATIONAL WEATHER SERVICE NEWPORT/MOREHEAD CITY NC
400 PM EST SUN JAN 15 2017

NOTE: "FAIR" INDICATES FEW OR NO CLOUDS BELOW 12,000 FEET
WITH NO SIGNIFICANT WEATHER AND/OR OBSTRUCTIONS TO VISIBILITY

NCZ015>017-031-032-045>047-102-103-152200-
NORTH COAST

CITY           SKY/WX    TMP DP  RH WIND       PRES   REMARKS
EDENTON        SUNNY     49  41  75 SE8       30.35R
ELIZABETH CITY SUNNY     47  37  68 N7        30.35R
KITTY HAWK     NOT AVBL
MANTEO         CLOUDY    43  40  88 NE9       30.36R

$$

NCZ045>047-081-094-103-104-152200-
CENTRAL COAST

CITY           SKY/WX    TMP DP  RH WIND       PRES   REMARKS
FRISCO         CLOUDY    47  41  80 VRB6      30.33S

$$

NCZ095-097-098-100-101-152200-
SOUTHERN COAST

CITY           SKY/WX    TMP DP  RH WIND       PRES   REMARKS
BEAUFORT       CLOUDY    52  43  71 N14       30.33R
CEDAR ISLAND   NOT AVBL
JACKSONVILLE   CLOUDY    60  47  61 E9        30.29S
PINEY ISLAND   MOCLDY   N/A N/A N/A NE12      30.33R
WILMINGTON     SUNNY     57  48  72 E8        30.30R


$$

NCZ011>013-027>030-043-044-078>080-089-090>093-098-152200-
COASTAL PLAIN

CITY           SKY/WX    TMP DP  RH WIND       PRES   REMARKS
AHOSKIE          N/A     49  31  48 N6        30.34S
CLINTON        MOSUNNY   60  47  63 E5        30.30S
ELIZABETHTOWN  MOSUNNY   63  49  61 NE3       30.28S
GOLDSBORO      PTSUNNY   56  46  68 NE9       30.29R
GREENVILLE     SUNNY     55  41  58 E7        30.33R
HAVELOCK       CLOUDY    52  43  71 E10       30.33R
KENANSVILLE    CLOUDY    59  46  63 E6        30.30S
KINSTON        MOSUNNY   57  45  62 NE8       30.32R
NEW BERN       CLOUDY    55  44  66 NE9       30.33R
RICHLANDS      CLOUDY    59  46  62 E8        30.31R
ROCKY MOUNT    SUNNY     54  37  52 CALM      30.32S
WASHINGTON     SUNNY     54  41  63 NE7       30.33S
WHITEVILLE     MOSUNNY   62  51  66 NE6       30.27R

$$

AMZ130-135-150-152-154-156-158-170-250-252-270-ANZ085-086-088-633-658-670-152200-
MARINE OBSERVATIONS

STATION/POSITION TIME  TEMP    WIND        PRES    WAVE   SWELL
                       AIR SEA DIR/SP/G            HT/PER HT/PER
                 (UTC) (F)     (DEG/KT/KT) (MB)    (FT/S) (FT/S)
CHESAPEAKE LIGHT NOT AVBL
64 E VA BEACH    2050   46 57  360/ 17/ 19 1026.7    5/ 6   3/11
DUCK             2100   41 45   30/ 14/ 15 1027.2
2 E DUCK         2100      47                N/A     5/ 5   2/11
OREGON INLET     2100   44 49   10/  7/ 11 1027.5
13E OREGON INLT  NOT AVBL
HATTERAS CG      2100   46 56   20/ 14/ 19 1026.7
DIAMOND BUOY     2050   52 74   20/ 16/ 21 1026.2    4/11   2/11
CAPE LOOKOUT     2100   50      10/ 12/ 15 1026.4
BEAUFORT LAB     2100   51 50   20/ 10/ 13 1026.0
30 SE NEW RVR IN 2108   53 65   50/ 17/ 21 1026.1
30 SE NEW RVR IN 2043      65                N/A     4/10   2/12
27 SE WRIGHTSVLE 2108   58 71   80/ 16/ 23 1025.4
5 SE WRIGHTSVLE  2108   54      70/ 12/ 19 1025.9
225 S CAPE HAT   2050   69 72   30/ 10/ 12 1024.1    5/11   3/11
41 SE CHARLESTON 2050   68 71  240/  8/  8 1023.9    3/10   3/10

$$




USA.gov is the U.S. government's official web portal to all federal, state and local government web resources and services.